This is the latest recevied weather packets stored in our database for station/object OE3TEC-15. If no packets are shown the sender has not sent any weather packets the latest 10 day(s).
| Time | Temp. | Humidity | Pressure | Rain* | Wind** | Luminosity | Snow |
|---|---|---|---|---|---|---|---|
| 1777845342 | 15° C | 52% | 1014.9 hPa | 0 mm | - | 0 W/m² | - |
| 1777844735 | 15° C | 52% | 1015 hPa | 0 mm | - | 0 W/m² | - |
| 1777844127 | 15° C | 52% | 1015.1 hPa | 0 mm | - | 0 W/m² | - |
| 1777843519 | 15.56° C | 52% | 1015.2 hPa | 0 mm | - | 0 W/m² | - |
| 1777842912 | 15.56° C | 50% | 1015 hPa | 0 mm | - | 0 W/m² | - |
| 1777842306 | 15.56° C | 50% | 1015.2 hPa | 0 mm | - | 0 W/m² | - |
| 1777841698 | 15.56° C | 49% | 1015.2 hPa | 0 mm | - | 0 W/m² | - |
| 1777841091 | 16.11° C | 49% | 1015.3 hPa | 0 mm | - | 0 W/m² | - |
| 1777840485 | 16.67° C | 48% | 1015.4 hPa | 0 mm | - | 0 W/m² | - |
| 1777839877 | 16.67° C | 46% | 1015.4 hPa | 0 mm | - | 0 W/m² | - |
| 1777839270 | 17.22° C | 46% | 1015.5 hPa | 0 mm | - | 0 W/m² | - |
| 1777838663 | 17.22° C | 45% | 1015.6 hPa | 0 mm | - | 0 W/m² | - |
| 1777838054 | 17.22° C | 45% | 1015.8 hPa | 0 mm | - | 0 W/m² | - |
| 1777837447 | 17.22° C | 45% | 1015.8 hPa | 0 mm | - | 0 W/m² | - |
| 1777836841 | 17.78° C | 44% | 1015.8 hPa | 0 mm | - | 0 W/m² | - |
| 1777836232 | 17.78° C | 44% | 1015.8 hPa | 0 mm | - | 0 W/m² | - |
| 1777835625 | 17.78° C | 43% | 1015.8 hPa | 0 mm | - | 0 W/m² | - |
| 1777835018 | 18.33° C | 42% | 1015.7 hPa | 0 mm | - | 0 W/m² | - |
| 1777834411 | 18.89° C | 41% | 1015.5 hPa | 0 mm | - | 0 W/m² | - |
| 1777833804 | 19.44° C | 40% | 1015.6 hPa | 0 mm | - | 0 W/m² | - |
| 1777833196 | 20° C | 39% | 1015.6 hPa | 0 mm | - | 0 W/m² | - |
| 1777832590 | 20° C | 38% | 1015.4 hPa | 0 mm | - | 1 W/m² | - |
| 1777831983 | 20.56° C | 38% | 1015.4 hPa | 0 mm | - | 2 W/m² | - |
| 1777831375 | 20.56° C | 37% | 1015.4 hPa | 0 mm | - | 4 W/m² | - |
| 1777830768 | 21.11° C | 37% | 1015.4 hPa | 0 mm | - | 7 W/m² | - |
* Rain latest hour (hover to see other rain measurements)
** Current wind speed in m/s (hover to see current wind gust speed)